Time,TemperatureF,DewpointF,PressureIn,WindDirection,WindDirectionDegrees,WindSpeedMPH,WindSpeedGustMPH,Humidity,HourlyPrecipIn,Conditions,Clouds,dailyrainin,SoftwareType,DateUTC
2013-06-01 00:01:00,75.2,63.0,29.98,SSW,202,3.0,7.0,66,0.00,,,0.00,WeatherCatV1.02B3,2013-06-01 04:01:00,
2013-06-01 00:06:00,75.1,62.9,29.98,WSW,252,3.0,3.0,66,0.00,,,0.00,WeatherCatV1.02B3,2013-06-01 04:06:00,
2013-06-01 00:11:00,74.9,63.2,29.98,South,190,3.0,6.0,67,0.00,,,0.00,WeatherCatV1.02B3,2013-06-01 04:11:00,
2013-06-01 00:16:00,74.7,63.0,29.98,SW,227,0.0,6.0,67,0.00,,,0.00,WeatherCatV1.02B3,2013-06-01 04:16:00,
2013-06-01 00:21:00,74.4,63.1,29.98,SSW,202,0.0,5.0,68,0.00,,,0.00,WeatherCatV1.02B3,2013-06-01 04:21:00,
2013-06-01 00:26:00,74.2,62.9,29.98,SW,219,1.0,5.0,68,0.00,,,0.00,WeatherCatV1.02B3,2013-06-01 04:26:00,
2013-06-01 00:31:00,74.0,63.2,29.98,SSW,200,0.0,1.0,69,0.00,,,0.00,WeatherCatV1.02B3,2013-06-01 04:31:00,
2013-06-01 00:36:00,73.7,62.9,29.98,SW,226,0.0,6.0,69,0.00,,,0.00,WeatherCatV1.02B3,2013-06-01 04:36:00,
2013-06-01 00:41:00,73.5,63.1,29.98,SW,215,6.0,7.0,70,0.00,,,0.00,WeatherCatV1.02B3,2013-06-01 04:41:00,
2013-06-01 00:46:00,73.3,62.9,29.98,SSW,202,0.0,5.0,70,0.00,,,0.00,WeatherCatV1.02B3,2013-06-01 04:46:00,
2013-06-01 00:51:00,73.1,63.1,29.98,SW,235,0.0,4.0,71,0.00,,,0.00,WeatherCatV1.02B3,2013-06-01 04:51:00,
2013-06-01 00:56:00,72.9,62.9,29.97,SW,235,0.0,5.0,71,0.00,,,0.00,WeatherCatV1.02B3,2013-06-01 04:56:00,
2013-06-01 01:01:00,72.7,63.1,29.97,SW,235,1.0,1.0,72,0.00,,,0.00,WeatherCatV1.02B3,2013-06-01 05:01:00,
2013-06-01 01:06:00,72.5,62.9,29.97,WNW,298,0.0,2.0,72,0.00,,,0.00,WeatherCatV1.02B3,2013-06-01 05:06:00,
2013-06-01 01:11:00,72.2,63.0,29.97,SW,218,0.0,0.0,73,0.00,,,0.00,WeatherCatV1.02B3,2013-06-01 05:11:00,
2013-06-01 01:16:00,72.1,63.0,29.97,SW,221,0.0,4.0,73,0.00,,,0.00,WeatherCatV1.02B3,2013-06-01 05:16:00,
2013-06-01 01:21:00,72.0,62.9,29.97,SW,215,3.0,4.0,73,0.00,,,0.00,WeatherCatV1.02B3,2013-06-01 05:21:00,
2013-06-01 01:26:00,71.8,63.1,29.97,SW,215,0.0,4.0,74,0.00,,,0.00,WeatherCatV1.02B3,2013-06-01 05:26:00,
2013-06-01 01:31:00,71.6,62.9,29.97,SW,222,0.0,5.0,74,0.00,,,0.00,WeatherCatV1.02B3,2013-06-01 05:31:00,
2013-06-01 01:36:00,71.4,63.0,29.97,SSW,213,0.0,3.0,75,0.00,,,0.00,WeatherCatV1.02B3,2013-06-01 05:36:00,
2013-06-01 01:41:00,71.2,62.9,29.96,SSW,207,4.0,6.0,75,0.00,,,0.00,WeatherCatV1.02B3,2013-06-01 05:41:00,
2013-06-01 01:46:00,71.1,62.8,29.96,SW,219,4.0,6.0,75,0.00,,,0.00,WeatherCatV1.02B3,2013-06-01 05:46:00,
2013-06-01 01:51:00,71.0,62.7,29.96,WNW,296,1.0,3.0,75,0.00,,,0.00,WeatherCatV1.02B3,2013-06-01 05:51:00,
2013-06-01 01:56:00,70.9,62.9,29.96,SW,234,4.0,4.0,76,0.00,,,0.00,WeatherCatV1.02B3,2013-06-01 05:56:00,
2013-06-01 02:01:00,70.7,62.8,29.96,SSW,209,5.0,6.0,76,0.00,,,0.00,WeatherCatV1.02B3,2013-06-01 06:01:00,
2013-06-01 02:06:00,70.6,62.7,29.96,SSW,212,0.0,6.0,76,0.00,,,0.00,WeatherCatV1.02B3,2013-06-01 06:06:00,
2013-06-01 02:11:00,70.4,62.8,29.96,SW,217,0.0,7.0,77,0.00,,,0.00,WeatherCatV1.02B3,2013-06-01 06:11:00,
2013-06-01 02:16:00,70.3,62.7,29.96,South,177,0.0,4.0,77,0.00,,,0.00,WeatherCatV1.02B3,2013-06-01 06:16:00,
2013-06-01 02:21:00,70.2,62.6,29.95,SSW,213,0.0,3.0,77,0.00,,,0.00,WeatherCatV1.02B3,2013-06-01 06:21:00,
2013-06-01 02:23:00,70.1,62.5,29.95,SW,227,4.0,4.0,77,0.00,,,0.00,WeatherCatV1.02B3,2013-06-01 06:23:00,
2013-06-01 02:28:00,70.0,62.8,29.95,SW,225,4.0,5.0,78,0.00,,,0.00,WeatherCatV1.02B3,2013-06-01 06:28:00,
2013-06-01 02:33:00,69.9,62.7,29.95,SSW,209,0.0,1.0,78,0.00,,,0.00,WeatherCatV1.02B3,2013-06-01 06:33:00,
2013-06-01 02:38:00,69.7,62.9,29.95,SSW,206,0.0,4.0,79,0.00,,,0.00,WeatherCatV1.02B3,2013-06-01 06:38:00,
2013-06-01 02:43:00,69.5,62.7,29.95,SW,234,3.0,4.0,79,0.00,,,0.00,WeatherCatV1.02B3,2013-06-01 06:43:00,
2013-06-01 02:48:00,69.4,63.0,29.95,WSW,254,0.0,1.0,80,0.00,,,0.00,WeatherCatV1.02B3,2013-06-01 06:48:00,
2013-06-01 02:53:00,69.2,62.8,29.95,SW,234,3.0,5.0,80,0.00,,,0.00,WeatherCatV1.02B3,2013-06-01 06:53:00,
2013-06-01 02:58:00,69.2,62.8,29.95,SW,224,0.0,6.0,80,0.00,,,0.00,WeatherCatV1.02B3,2013-06-01 06:58:00,
2013-06-01 03:03:00,69.2,62.8,29.95,SW,224,3.0,4.0,80,0.00,,,0.00,WeatherCatV1.02B3,2013-06-01 07:03:00,
2013-06-01 03:08:00,69.3,62.5,29.95,SSW,203,0.0,3.0,79,0.00,,,0.00,WeatherCatV1.02B3,2013-06-01 07:08:00,
2013-06-01 03:13:00,69.4,62.6,29.95,WSW,244,0.0,7.0,79,0.00,,,0.00,WeatherCatV1.02B3,2013-06-01 07:13:00,
2013-06-01 03:18:00,69.5,62.7,29.95,SW,216,1.0,5.0,79,0.00,,,0.00,WeatherCatV1.02B3,2013-06-01 07:18:00,
2013-06-01 03:23:00,69.8,62.6,29.95,SW,226,2.0,4.0,78,0.00,,,0.00,WeatherCatV1.02B3,2013-06-01 07:23:00,
2013-06-01 03:28:00,70.1,62.9,29.95,SW,225,3.0,7.0,78,0.00,,,0.00,WeatherCatV1.02B3,2013-06-01 07:28:00,
2013-06-01 03:33:00,70.4,62.8,29.95,SSW,211,0.0,5.0,77,0.00,,,0.00,WeatherCatV1.02B3,2013-06-01 07:33:00,
2013-06-01 03:38:00,70.6,62.7,29.95,WSW,252,2.0,5.0,76,0.00,,,0.00,WeatherCatV1.02B3,2013-06-01 07:38:00,
2013-06-01 03:43:00,70.6,62.7,29.95,SSW,194,0.0,4.0,76,0.00,,,0.00,WeatherCatV1.02B3,2013-06-01 07:43:00,
2013-06-01 03:48:00,70.7,62.8,29.95,WSW,240,0.0,6.0,76,0.00,,,0.00,WeatherCatV1.02B3,2013-06-01 07:48:00,
2013-06-01 03:53:00,70.6,62.7,29.95,SW,233,3.0,4.0,76,0.00,,,0.00,WeatherCatV1.02B3,2013-06-01 07:53:00,
2013-06-01 03:58:00,70.5,62.6,29.95,WSW,242,2.0,5.0,76,0.00,,,0.00,WeatherCatV1.02B3,2013-06-01 07:58:00,
2013-06-01 04:03:00,70.4,62.5,29.95,WNW,291,0.0,5.0,76,0.00,,,0.00,WeatherCatV1.02B3,2013-06-01 08:03:00,
2013-06-01 04:08:00,70.4,62.5,29.95,SW,218,6.0,8.0,76,0.00,,,0.00,WeatherCatV1.02B3,2013-06-01 08:08:00,
2013-06-01 04:13:00,70.4,62.5,29.95,WSW,242,1.0,7.0,76,0.00,,,0.00,WeatherCatV1.02B3,2013-06-01 08:13:00,
2013-06-01 04:18:00,70.4,62.8,29.95,SSW,209,3.0,7.0,77,0.00,,,0.00,WeatherCatV1.02B3,2013-06-01 08:18:00,
2013-06-01 04:23:00,70.3,62.7,29.95,SSW,209,5.0,9.0,77,0.00,,,0.00,WeatherCatV1.02B3,2013-06-01 08:23:00,
2013-06-01 04:28:00,70.2,62.6,29.95,SW,221,3.0,6.0,77,0.00,,,0.00,WeatherCatV1.02B3,2013-06-01 08:28:00,
2013-06-01 04:33:00,70.1,62.5,29.95,SW,227,2.0,5.0,77,0.00,,,0.00,WeatherCatV1.02B3,2013-06-01 08:33:00,
2013-06-01 04:38:00,70.0,62.4,29.95,SW,223,1.0,6.0,77,0.00,,,0.00,WeatherCatV1.02B3,2013-06-01 08:38:00,
2013-06-01 04:43:00,70.0,62.4,29.95,WSW,247,0.0,8.0,77,0.00,,,0.00,WeatherCatV1.02B3,2013-06-01 08:43:00,
2013-06-01 04:48:00,70.0,62.8,29.95,West,268,2.0,4.0,78,0.00,,,0.00,WeatherCatV1.02B3,2013-06-01 08:48:00,
2013-06-01 04:53:00,69.9,62.3,29.96,SSW,213,2.0,4.0,77,0.00,,,0.00,WeatherCatV1.02B3,2013-06-01 08:53:00,
2013-06-01 04:58:00,69.9,62.3,29.95,WSW,248,0.0,5.0,77,0.00,,,0.00,WeatherCatV1.02B3,2013-06-01 08:58:00,
2013-06-01 05:03:00,69.8,62.6,29.96,SSW,210,0.0,8.0,78,0.00,,,0.00,WeatherCatV1.02B3,2013-06-01 09:03:00,
2013-06-01 05:08:00,69.6,62.4,29.96,SW,225,0.0,5.0,78,0.00,,,0.00,WeatherCatV1.02B3,2013-06-01 09:08:00,
2013-06-01 05:13:00,69.5,62.3,29.96,SW,217,3.0,6.0,78,0.00,,,0.00,WeatherCatV1.02B3,2013-06-01 09:13:00,
2013-06-01 05:18:00,69.4,62.6,29.96,SSW,211,0.0,5.0,79,0.00,,,0.00,WeatherCatV1.02B3,2013-06-01 09:18:00,
2013-06-01 05:23:00,69.1,62.3,29.96,SSW,211,0.0,5.0,79,0.00,,,0.00,WeatherCatV1.02B3,2013-06-01 09:23:00,
2013-06-01 05:30:00,68.8,62.4,29.96,SSW,211,2.0,2.0,80,0.00,,,0.00,WeatherCatV1.02B3,2013-06-01 09:30:00,
2013-06-01 05:35:00,68.6,62.5,29.96,SSW,207,5.0,5.0,81,0.00,,,0.00,WeatherCatV1.02B3,2013-06-01 09:35:00,
2013-06-01 05:40:00,68.4,62.3,29.96,SW,236,1.0,7.0,81,0.00,,,0.00,WeatherCatV1.02B3,2013-06-01 09:40:00,
2013-06-01 05:45:00,68.3,62.6,29.96,WSW,244,3.0,3.0,82,0.00,,,0.00,WeatherCatV1.02B3,2013-06-01 09:45:00,
2013-06-01 05:46:00,68.3,62.2,29.96,SW,224,0.0,6.0,81,0.00,,,0.00,WeatherCatV1.02B3,2013-06-01 09:46:00,
2013-06-01 05:51:00,68.2,62.5,29.96,SW,221,0.0,3.0,82,0.00,,,0.00,WeatherCatV1.02B3,2013-06-01 09:51:00,
2013-06-01 05:56:00,68.3,62.6,29.96,WSW,240,6.0,7.0,82,0.00,,,0.00,WeatherCatV1.02B3,2013-06-01 09:56:00,
2013-06-01 06:01:00,68.3,62.6,29.96,SSW,210,2.0,8.0,82,0.00,,,0.00,WeatherCatV1.02B3,2013-06-01 10:01:00,
2013-06-01 06:06:00,68.2,62.5,29.96,South,173,0.0,1.0,82,0.00,,,0.00,WeatherCatV1.02B3,2013-06-01 10:06:00,
2013-06-01 06:11:00,68.1,62.4,29.97,South,172,0.0,7.0,82,0.00,,,0.00,WeatherCatV1.02B3,2013-06-01 10:11:00,
2013-06-01 06:16:00,68.0,62.6,29.97,SW,223,0.0,3.0,83,0.00,,,0.00,WeatherCatV1.02B3,2013-06-01 10:16:00,
2013-06-01 06:21:00,67.9,62.5,29.97,SW,234,0.0,6.0,83,0.00,,,0.00,WeatherCatV1.02B3,2013-06-01 10:21:00,
2013-06-01 06:26:00,67.9,62.5,29.97,SW,223,1.0,8.0,83,0.00,,,0.00,WeatherCatV1.02B3,2013-06-01 10:26:00,
2013-06-01 06:31:00,68.0,63.0,29.97,WSW,252,5.0,5.0,84,0.00,,,0.00,WeatherCatV1.02B3,2013-06-01 10:31:00,
2013-06-01 06:38:00,68.3,62.9,29.97,SW,230,5.0,6.0,83,0.00,,,0.00,WeatherCatV1.02B3,2013-06-01 10:38:00,
2013-06-01 06:43:00,68.7,63.0,29.97,SW,233,2.0,9.0,82,0.00,,,0.00,WeatherCatV1.02B3,2013-06-01 10:43:00,
2013-06-01 06:48:00,69.2,63.5,29.97,WSW,248,1.0,6.0,82,0.00,,,0.00,WeatherCatV1.02B3,2013-06-01 10:48:00,
2013-06-01 06:53:00,69.6,63.9,29.97,WNW,296,1.0,1.0,82,0.00,,,0.00,WeatherCatV1.02B3,2013-06-01 10:53:00,
2013-06-01 06:58:00,69.9,63.8,29.97,West,277,0.0,6.0,81,0.00,,,0.00,WeatherCatV1.02B3,2013-06-01 10:58:00,
2013-06-01 07:03:00,70.3,64.2,29.96,SW,219,0.0,2.0,81,0.00,,,0.00,WeatherCatV1.02B3,2013-06-01 11:03:00,
2013-06-01 07:08:00,70.6,64.1,29.97,SSE,163,0.0,5.0,80,0.00,,,0.00,WeatherCatV1.02B3,2013-06-01 11:08:00,
2013-06-01 07:13:00,70.9,64.4,29.97,WSW,240,0.0,3.0,80,0.00,,,0.00,WeatherCatV1.02B3,2013-06-01 11:13:00,
2013-06-01 07:18:00,71.3,64.4,29.97,SW,225,3.0,4.0,79,0.00,,,0.00,WeatherCatV1.02B3,2013-06-01 11:18:00,
2013-06-01 07:23:00,71.7,64.5,29.97,WSW,250,1.0,9.0,78,0.00,,,0.00,WeatherCatV1.02B3,2013-06-01 11:23:00,
2013-06-01 07:28:00,72.1,64.8,29.97,SSW,197,5.0,6.0,78,0.00,,,0.00,WeatherCatV1.02B3,2013-06-01 11:28:00,
2013-06-01 07:33:00,72.5,64.9,29.97,SW,215,1.0,4.0,77,0.00,,,0.00,WeatherCatV1.02B3,2013-06-01 11:33:00,
2013-06-01 07:38:00,73.1,65.4,29.97,SW,218,0.0,9.0,77,0.00,,,0.00,WeatherCatV1.02B3,2013-06-01 11:38:00,
2013-06-01 07:43:00,73.6,65.6,29.97,West,265,4.0,5.0,76,0.00,,,0.00,WeatherCatV1.02B3,2013-06-01 11:43:00,
2013-06-01 07:48:00,74.2,66.1,29.97,SW,219,0.0,10.0,76,0.00,,,0.00,WeatherCatV1.02B3,2013-06-01 11:48:00,
2013-06-01 07:53:00,74.7,65.8,29.97,WSW,251,0.0,4.0,74,0.00,,,0.00,WeatherCatV1.02B3,2013-06-01 11:53:00,
2013-06-01 07:58:00,75.3,66.0,29.97,WNW,289,5.0,8.0,73,0.00,,,0.00,WeatherCatV1.02B3,2013-06-01 11:58:00,
2013-06-01 08:03:00,75.8,66.5,29.97,South,179,1.0,2.0,73,0.00,,,0.00,WeatherCatV1.02B3,2013-06-01 12:03:00,
2013-06-01 08:08:00,76.4,66.7,29.97,WNW,302,3.0,4.0,72,0.00,,,0.00,WeatherCatV1.02B3,2013-06-01 12:08:00,
2013-06-01 08:13:00,76.9,66.8,29.97,WNW,290,0.0,0.0,71,0.00,,,0.00,WeatherCatV1.02B3,2013-06-01 12:13:00,
2013-06-01 08:18:00,77.4,66.8,29.97,SW,224,5.0,6.0,70,0.00,,,0.00,WeatherCatV1.02B3,2013-06-01 12:18:00,
2013-06-01 08:23:00,77.6,67.0,29.97,West,280,0.0,4.0,70,0.00,,,0.00,WeatherCatV1.02B3,2013-06-01 12:23:00,
2013-06-01 08:28:00,78.2,67.2,29.97,SSW,209,2.0,7.0,69,0.00,,,0.00,WeatherCatV1.02B3,2013-06-01 12:28:00,
2013-06-01 08:33:00,78.6,67.6,29.97,WSW,250,2.0,6.0,69,0.00,,,0.00,WeatherCatV1.02B3,2013-06-01 12:33:00,
2013-06-01 08:38:00,79.1,67.6,29.97,SSW,205,0.0,6.0,68,0.00,,,0.00,WeatherCatV1.02B3,2013-06-01 12:38:00,
2013-06-01 08:43:00,79.6,67.2,29.97,SW,225,0.0,5.0,66,0.00,,,0.00,WeatherCatV1.02B3,2013-06-01 12:43:00,
2013-06-01 08:48:00,79.9,67.5,29.97,WNW,288,6.0,7.0,66,0.00,,,0.00,WeatherCatV1.02B3,2013-06-01 12:48:00,
2013-06-01 08:53:00,80.2,67.3,29.97,SW,228,4.0,5.0,65,0.00,,,0.00,WeatherCatV1.02B3,2013-06-01 12:53:00,
2013-06-01 08:58:00,80.4,67.1,29.97,SW,230,0.0,8.0,64,0.00,,,0.00,WeatherCatV1.02B3,2013-06-01 12:58:00,
2013-06-01 09:05:00,80.8,67.9,29.97,SW,232,4.0,5.0,65,0.00,,,0.00,WeatherCatV1.02B3,2013-06-01 13:05:00,
2013-06-01 09:10:00,80.9,66.6,29.97,SW,216,3.0,6.0,62,0.00,,,0.00,WeatherCatV1.02B3,2013-06-01 13:10:00,
2013-06-01 09:15:00,81.0,67.2,29.97,West,279,2.0,7.0,63,0.00,,,0.00,WeatherCatV1.02B3,2013-06-01 13:15:00,
2013-06-01 09:20:00,81.3,67.0,29.97,WSW,256,6.0,7.0,62,0.00,,,0.00,WeatherCatV1.02B3,2013-06-01 13:20:00,
2013-06-01 09:25:00,81.5,67.2,29.96,SW,224,0.0,7.0,62,0.00,,,0.00,WeatherCatV1.02B3,2013-06-01 13:25:00,
2013-06-01 09:30:00,81.9,67.6,29.97,SSW,205,5.0,8.0,62,0.00,,,0.00,WeatherCatV1.02B3,2013-06-01 13:30:00,
2013-06-01 09:35:00,82.5,68.1,29.96,SW,232,2.0,7.0,62,0.00,,,0.00,WeatherCatV1.02B3,2013-06-01 13:35:00,
2013-06-01 09:40:00,83.1,67.3,29.96,WNW,292,4.0,10.0,59,0.00,,,0.00,WeatherCatV1.02B3,2013-06-01 13:40:00,
2013-06-01 09:47:00,83.4,69.0,29.96,SW,217,0.0,1.0,62,0.00,,,0.00,WeatherCatV1.02B3,2013-06-01 13:47:00,
2013-06-01 09:52:00,83.9,68.5,29.96,WSW,243,5.0,8.0,60,0.00,,,0.00,WeatherCatV1.02B3,2013-06-01 13:52:00,
2013-06-01 09:57:00,84.1,68.7,29.96,SSW,209,7.0,7.0,60,0.00,,,0.00,WeatherCatV1.02B3,2013-06-01 13:57:00,
2013-06-01 10:02:00,84.3,67.9,29.96,SSW,207,7.0,7.0,58,0.00,,,0.00,WeatherCatV1.02B3,2013-06-01 14:02:00,
2013-06-01 10:07:00,84.5,68.6,29.96,SSW,205,4.0,10.0,59,0.00,,,0.00,WeatherCatV1.02B3,2013-06-01 14:07:00,
2013-06-01 10:11:00,84.6,68.7,29.96,SW,228,2.0,11.0,59,0.00,,,0.00,WeatherCatV1.02B3,2013-06-01 14:11:00,
2013-06-01 10:16:00,84.6,68.7,29.96,SW,227,0.0,5.0,59,0.00,,,0.00,WeatherCatV1.02B3,2013-06-01 14:16:00,
2013-06-01 10:21:00,84.7,68.3,29.96,WNW,286,6.0,10.0,58,0.00,,,0.00,WeatherCatV1.02B3,2013-06-01 14:21:00,
2013-06-01 10:26:00,84.7,68.3,29.96,WSW,237,9.0,9.0,58,0.00,,,0.00,WeatherCatV1.02B3,2013-06-01 14:26:00,
2013-06-01 10:31:00,84.7,68.8,29.95,SSW,202,7.0,7.0,59,0.00,,,0.00,WeatherCatV1.02B3,2013-06-01 14:31:00,
2013-06-01 10:36:00,84.7,69.2,29.96,WSW,258,4.0,5.0,60,0.00,,,0.00,WeatherCatV1.02B3,2013-06-01 14:36:00,
2013-06-01 10:41:00,85.0,69.5,29.96,SSW,211,5.0,5.0,60,0.00,,,0.00,WeatherCatV1.02B3,2013-06-01 14:41:00,
2013-06-01 10:46:00,85.3,67.8,29.95,SW,234,0.0,8.0,56,0.00,,,0.00,WeatherCatV1.02B3,2013-06-01 14:46:00,
2013-06-01 10:51:00,85.3,67.8,29.95,SSW,203,3.0,14.0,56,0.00,,,0.00,WeatherCatV1.02B3,2013-06-01 14:51:00,
2013-06-01 10:57:00,85.4,68.4,29.95,WSW,241,3.0,5.0,57,0.00,,,0.00,WeatherCatV1.02B3,2013-06-01 14:57:00,
2013-06-01 11:02:00,86.0,67.4,29.95,WNW,290,2.0,11.0,54,0.00,,,0.00,WeatherCatV1.02B3,2013-06-01 15:02:00,
2013-06-01 11:07:00,86.4,67.8,29.95,SSW,207,3.0,8.0,54,0.00,,,0.00,WeatherCatV1.02B3,2013-06-01 15:07:00,
2013-06-01 11:12:00,86.3,67.7,29.95,South,171,5.0,15.0,54,0.00,,,0.00,WeatherCatV1.02B3,2013-06-01 15:12:00,
2013-06-01 11:17:00,86.5,67.3,29.95,SW,223,8.0,12.0,53,0.00,,,0.00,WeatherCatV1.02B3,2013-06-01 15:17:00,
2013-06-01 11:22:00,86.3,67.1,29.95,SSW,211,7.0,13.0,53,0.00,,,0.00,WeatherCatV1.02B3,2013-06-01 15:22:00,
2013-06-01 11:27:00,86.5,67.3,29.95,ESE,121,1.0,8.0,53,0.00,,,0.00,WeatherCatV1.02B3,2013-06-01 15:27:00,
2013-06-01 11:32:00,86.7,68.0,29.95,SSW,200,2.0,13.0,54,0.00,,,0.00,WeatherCatV1.02B3,2013-06-01 15:32:00,
2013-06-01 11:37:00,86.9,68.2,29.94,SW,228,5.0,10.0,54,0.00,,,0.00,WeatherCatV1.02B3,2013-06-01 15:37:00,
2013-06-01 11:42:00,86.8,67.6,29.94,WSW,258,10.0,11.0,53,0.00,,,0.00,WeatherCatV1.02B3,2013-06-01 15:42:00,
2013-06-01 11:47:00,86.7,69.1,29.94,NNW,329,1.0,4.0,56,0.00,,,0.00,WeatherCatV1.02B3,2013-06-01 15:47:00,
2013-06-01 11:52:00,86.7,68.0,29.94,SW,221,4.0,12.0,54,0.00,,,0.00,WeatherCatV1.02B3,2013-06-01 15:52:00,
2013-06-01 11:57:00,86.8,67.0,29.94,SW,221,4.0,9.0,52,0.00,,,0.00,WeatherCatV1.02B3,2013-06-01 15:57:00,
2013-06-01 12:02:00,86.9,67.1,29.93,SSW,207,7.0,15.0,52,0.00,,,0.00,WeatherCatV1.02B3,2013-06-01 16:02:00,
2013-06-01 12:07:00,87.0,68.3,29.93,NW,319,0.0,7.0,54,0.00,,,0.00,WeatherCatV1.02B3,2013-06-01 16:07:00,
2013-06-01 12:12:00,87.1,68.9,29.93,SSW,204,6.0,9.0,55,0.00,,,0.00,WeatherCatV1.02B3,2013-06-01 16:12:00,
2013-06-01 12:17:00,87.4,67.6,29.93,SSW,209,5.0,10.0,52,0.00,,,0.00,WeatherCatV1.02B3,2013-06-01 16:17:00,
2013-06-01 12:23:00,87.9,68.0,29.93,West,269,5.0,5.0,52,0.00,,,0.00,WeatherCatV1.02B3,2013-06-01 16:23:00,
2013-06-01 12:28:00,88.0,67.6,29.93,WSW,258,6.0,8.0,51,0.00,,,0.00,WeatherCatV1.02B3,2013-06-01 16:28:00,
2013-06-01 12:33:00,87.9,67.5,29.92,WSW,249,3.0,8.0,51,0.00,,,0.00,WeatherCatV1.02B3,2013-06-01 16:33:00,
2013-06-01 12:38:00,87.9,66.9,29.92,WSW,242,5.0,8.0,50,0.00,,,0.00,WeatherCatV1.02B3,2013-06-01 16:38:00,
2013-06-01 12:43:00,88.0,67.0,29.92,WSW,257,5.0,11.0,50,0.00,,,0.00,WeatherCatV1.02B3,2013-06-01 16:43:00,
2013-06-01 12:52:00,88.7,68.2,29.91,West,263,2.0,2.0,51,0.00,,,0.00,WeatherCatV1.02B3,2013-06-01 16:52:00,
2013-06-01 12:57:00,89.0,67.9,29.91,SSW,204,8.0,10.0,50,0.00,,,0.00,WeatherCatV1.02B3,2013-06-01 16:57:00,
2013-06-01 13:03:00,89.1,68.0,29.91,WSW,252,14.0,14.0,50,0.00,,,0.00,WeatherCatV1.02B3,2013-06-01 17:03:00,
2013-06-01 13:08:00,89.0,67.9,29.91,SW,219,10.0,12.0,50,0.00,,,0.00,WeatherCatV1.02B3,2013-06-01 17:08:00,
2013-06-01 13:13:00,88.9,67.8,29.91,WSW,255,1.0,1.0,50,0.00,,,0.00,WeatherCatV1.02B3,2013-06-01 17:13:00,
2013-06-01 13:18:00,88.8,66.5,29.91,SW,217,11.0,11.0,48,0.00,,,0.00,WeatherCatV1.02B3,2013-06-01 17:18:00,
2013-06-01 13:26:00,89.0,65.5,29.91,SSE,153,5.0,10.0,46,0.00,,,0.00,WeatherCatV1.02B3,2013-06-01 17:26:00,
2013-06-01 13:31:00,89.1,66.8,29.91,West,262,4.0,6.0,48,0.00,,,0.00,WeatherCatV1.02B3,2013-06-01 17:31:00,
2013-06-01 13:36:00,89.2,68.1,29.90,SE,138,1.0,7.0,50,0.00,,,0.00,WeatherCatV1.02B3,2013-06-01 17:36:00,
2013-06-01 13:41:00,89.2,68.1,29.91,West,259,5.0,7.0,50,0.00,,,0.00,WeatherCatV1.02B3,2013-06-01 17:41:00,
2013-06-01 13:46:00,89.2,66.3,29.90,West,279,4.0,4.0,47,0.00,,,0.00,WeatherCatV1.02B3,2013-06-01 17:46:00,
2013-06-01 13:53:00,89.4,68.3,29.90,NE,34,0.0,2.0,50,0.00,,,0.00,WeatherCatV1.02B3,2013-06-01 17:53:00,
2013-06-01 13:58:00,89.3,67.6,29.90,SE,130,0.0,10.0,49,0.00,,,0.00,WeatherCatV1.02B3,2013-06-01 17:58:00,
2013-06-01 14:03:00,89.3,67.0,29.90,West,269,2.0,11.0,48,0.00,,,0.00,WeatherCatV1.02B3,2013-06-01 18:03:00,
2013-06-01 14:08:00,89.4,67.7,29.90,SW,220,8.0,9.0,49,0.00,,,0.00,WeatherCatV1.02B3,2013-06-01 18:08:00,
2013-06-01 14:13:00,89.2,67.5,29.89,West,266,5.0,8.0,49,0.00,,,0.00,WeatherCatV1.02B3,2013-06-01 18:13:00,
2013-06-01 14:18:00,89.2,67.5,29.89,SSE,157,9.0,13.0,49,0.00,,,0.00,WeatherCatV1.02B3,2013-06-01 18:18:00,
2013-06-01 14:23:00,89.1,67.4,29.89,WSW,252,8.0,11.0,49,0.00,,,0.00,WeatherCatV1.02B3,2013-06-01 18:23:00,
2013-06-01 14:28:00,89.3,67.6,29.89,SSW,204,11.0,11.0,49,0.00,,,0.00,WeatherCatV1.02B3,2013-06-01 18:28:00,
2013-06-01 14:33:00,89.6,66.7,29.89,South,191,6.0,9.0,47,0.00,,,0.00,WeatherCatV1.02B3,2013-06-01 18:33:00,
2013-06-01 14:38:00,89.5,67.2,29.89,West,279,8.0,9.0,48,0.00,,,0.00,WeatherCatV1.02B3,2013-06-01 18:38:00,
2013-06-01 14:43:00,89.2,66.3,29.89,South,184,4.0,12.0,47,0.00,,,0.00,WeatherCatV1.02B3,2013-06-01 18:43:00,
2013-06-01 14:48:00,89.1,67.4,29.89,WSW,238,9.0,10.0,49,0.00,,,0.00,WeatherCatV1.02B3,2013-06-01 18:48:00,
2013-06-01 14:53:00,89.0,66.7,29.89,SW,226,11.0,15.0,48,0.00,,,0.00,WeatherCatV1.02B3,2013-06-01 18:53:00,
2013-06-01 14:58:00,88.8,67.7,29.89,SW,223,4.0,11.0,50,0.00,,,0.00,WeatherCatV1.02B3,2013-06-01 18:58:00,
2013-06-01 15:03:00,88.9,66.6,29.88,South,189,2.0,16.0,48,0.00,,,0.00,WeatherCatV1.02B3,2013-06-01 19:03:00,
2013-06-01 15:08:00,89.0,67.3,29.88,SSW,202,4.0,10.0,49,0.00,,,0.00,WeatherCatV1.02B3,2013-06-01 19:08:00,
2013-06-01 15:13:00,89.2,68.1,29.88,South,182,3.0,4.0,50,0.00,,,0.00,WeatherCatV1.02B3,2013-06-01 19:13:00,
2013-06-01 15:18:00,89.3,67.6,29.88,West,273,7.0,15.0,49,0.00,,,0.00,WeatherCatV1.02B3,2013-06-01 19:18:00,
2013-06-01 15:23:00,89.2,68.1,29.88,SE,132,0.0,8.0,50,0.00,,,0.00,WeatherCatV1.02B3,2013-06-01 19:23:00,
2013-06-01 15:28:00,89.2,67.5,29.88,SSE,154,0.0,10.0,49,0.00,,,0.00,WeatherCatV1.02B3,2013-06-01 19:28:00,
2013-06-01 15:33:00,89.0,67.3,29.88,SSW,213,4.0,8.0,49,0.00,,,0.00,WeatherCatV1.02B3,2013-06-01 19:33:00,
2013-06-01 15:38:00,88.9,67.8,29.88,SSW,196,3.0,10.0,50,0.00,,,0.00,WeatherCatV1.02B3,2013-06-01 19:38:00,
2013-06-01 15:43:00,88.8,68.3,29.88,SSW,195,0.0,4.0,51,0.00,,,0.00,WeatherCatV1.02B3,2013-06-01 19:43:00,
2013-06-01 15:48:00,88.8,68.9,29.88,WSW,242,0.0,5.0,52,0.00,,,0.00,WeatherCatV1.02B3,2013-06-01 19:48:00,
2013-06-01 15:53:00,88.8,68.3,29.88,South,178,0.0,9.0,51,0.00,,,0.00,WeatherCatV1.02B3,2013-06-01 19:53:00,
2013-06-01 15:58:00,88.6,67.0,29.88,SW,223,3.0,11.0,49,0.00,,,0.00,WeatherCatV1.02B3,2013-06-01 19:58:00,
2013-06-01 16:03:00,88.3,67.8,29.88,WSW,253,8.0,9.0,51,0.00,,,0.00,WeatherCatV1.02B3,2013-06-01 20:03:00,
2013-06-01 16:08:00,88.2,68.3,29.88,SSW,196,3.0,5.0,52,0.00,,,0.00,WeatherCatV1.02B3,2013-06-01 20:08:00,
2013-06-01 16:13:00,88.4,68.5,29.88,SSE,155,0.0,5.0,52,0.00,,,0.00,WeatherCatV1.02B3,2013-06-01 20:13:00,
2013-06-01 16:18:00,88.2,68.3,29.88,SSW,205,3.0,11.0,52,0.00,,,0.00,WeatherCatV1.02B3,2013-06-01 20:18:00,
2013-06-01 16:23:00,88.2,68.9,29.87,SW,216,0.0,14.0,53,0.00,,,0.00,WeatherCatV1.02B3,2013-06-01 20:23:00,
2013-06-01 16:28:00,88.2,68.3,29.87,West,264,4.0,8.0,52,0.00,,,0.00,WeatherCatV1.02B3,2013-06-01 20:28:00,
2013-06-01 16:33:00,88.1,68.8,29.87,WSW,246,4.0,9.0,53,0.00,,,0.00,WeatherCatV1.02B3,2013-06-01 20:33:00,
2013-06-01 16:38:00,88.0,69.2,29.87,West,267,0.0,15.0,54,0.00,,,0.00,WeatherCatV1.02B3,2013-06-01 20:38:00,
2013-06-01 16:43:00,88.0,68.7,29.87,SW,223,9.0,9.0,53,0.00,,,0.00,WeatherCatV1.02B3,2013-06-01 20:43:00,
2013-06-01 16:48:00,87.9,69.1,29.87,West,266,7.0,8.0,54,0.00,,,0.00,WeatherCatV1.02B3,2013-06-01 20:48:00,
2013-06-01 16:53:00,87.8,68.5,29.87,SSW,200,7.0,11.0,53,0.00,,,0.00,WeatherCatV1.02B3,2013-06-01 20:53:00,
2013-06-01 16:58:00,87.6,68.3,29.87,SW,229,6.0,9.0,53,0.00,,,0.00,WeatherCatV1.02B3,2013-06-01 20:58:00,
2013-06-01 17:03:00,87.4,68.7,29.87,West,271,4.0,11.0,54,0.00,,,0.00,WeatherCatV1.02B3,2013-06-01 21:03:00,
2013-06-01 17:08:00,87.4,69.2,29.87,SW,225,6.0,8.0,55,0.00,,,0.00,WeatherCatV1.02B3,2013-06-01 21:08:00,
2013-06-01 17:13:00,87.3,69.1,29.87,SSE,163,1.0,6.0,55,0.00,,,0.00,WeatherCatV1.02B3,2013-06-01 21:13:00,
2013-06-01 17:18:00,87.2,69.6,29.87,SSW,211,2.0,7.0,56,0.00,,,0.00,WeatherCatV1.02B3,2013-06-01 21:18:00,
2013-06-01 17:24:00,87.2,70.1,29.87,WNW,282,5.0,6.0,57,0.00,,,0.00,WeatherCatV1.02B3,2013-06-01 21:24:00,
2013-06-01 17:31:00,87.0,69.4,29.87,SSW,201,5.0,5.0,56,0.00,,,0.00,WeatherCatV1.02B3,2013-06-01 21:31:00,
2013-06-01 17:36:00,86.8,69.7,29.87,WSW,244,4.0,9.0,57,0.00,,,0.00,WeatherCatV1.02B3,2013-06-01 21:36:00,
2013-06-01 17:41:00,86.6,70.0,29.86,SE,134,5.0,10.0,58,0.00,,,0.00,WeatherCatV1.02B3,2013-06-01 21:41:00,
2013-06-01 17:46:00,86.3,69.2,29.86,WSW,252,11.0,11.0,57,0.00,,,0.00,WeatherCatV1.02B3,2013-06-01 21:46:00,
2013-06-01 17:51:00,86.0,69.0,29.87,SSW,205,9.0,16.0,57,0.00,,,0.00,WeatherCatV1.02B3,2013-06-01 21:51:00,
2013-06-01 17:56:00,85.8,69.3,29.86,WSW,238,5.0,9.0,58,0.00,,,0.00,WeatherCatV1.02B3,2013-06-01 21:56:00,
2013-06-01 18:01:00,85.6,69.6,29.86,SSE,148,6.0,12.0,59,0.00,,,0.00,WeatherCatV1.02B3,2013-06-01 22:01:00,
2013-06-01 18:06:00,85.3,69.3,29.86,SW,215,4.0,10.0,59,0.00,,,0.00,WeatherCatV1.02B3,2013-06-01 22:06:00,
2013-06-01 18:11:00,85.2,69.7,29.86,South,182,2.0,13.0,60,0.00,,,0.00,WeatherCatV1.02B3,2013-06-01 22:11:00,
2013-06-01 18:16:00,85.0,69.5,29.86,SW,232,7.0,11.0,60,0.00,,,0.00,WeatherCatV1.02B3,2013-06-01 22:16:00,
2013-06-01 18:21:00,84.8,69.3,29.86,SW,236,8.0,14.0,60,0.00,,,0.00,WeatherCatV1.02B3,2013-06-01 22:21:00,
2013-06-01 18:28:00,84.5,69.1,29.86,SW,218,7.0,14.0,60,0.00,,,0.00,WeatherCatV1.02B3,2013-06-01 22:28:00,
2013-06-01 18:33:00,84.5,69.5,29.86,SW,224,4.0,10.0,61,0.00,,,0.00,WeatherCatV1.02B3,2013-06-01 22:33:00,
2013-06-01 18:38:00,84.2,69.7,29.87,West,267,0.0,10.0,62,0.00,,,0.00,WeatherCatV1.02B3,2013-06-01 22:38:00,
2013-06-01 18:43:00,83.8,69.8,29.87,SW,214,4.0,10.0,63,0.00,,,0.00,WeatherCatV1.02B3,2013-06-01 22:43:00,
2013-06-01 18:48:00,83.3,69.4,29.87,WSW,245,2.0,6.0,63,0.00,,,0.00,WeatherCatV1.02B3,2013-06-01 22:48:00,
2013-06-01 18:53:00,83.1,69.6,29.87,SSE,163,8.0,8.0,64,0.00,,,0.00,WeatherCatV1.02B3,2013-06-01 22:53:00,
2013-06-01 18:58:00,82.9,69.9,29.88,SW,218,11.0,11.0,65,0.00,,,0.00,WeatherCatV1.02B3,2013-06-01 22:58:00,
2013-06-01 19:03:00,82.7,69.7,29.88,WSW,238,5.0,11.0,65,0.00,,,0.00,WeatherCatV1.02B3,2013-06-01 23:03:00,
2013-06-01 19:08:00,82.4,69.4,29.88,WSW,243,7.0,7.0,65,0.00,,,0.00,WeatherCatV1.02B3,2013-06-01 23:08:00,
2013-06-01 19:13:00,82.2,69.2,29.88,SW,215,3.0,8.0,65,0.00,,,0.00,WeatherCatV1.02B3,2013-06-01 23:13:00,
2013-06-01 19:18:00,82.0,69.5,29.88,WSW,258,4.0,6.0,66,0.00,,,0.00,WeatherCatV1.02B3,2013-06-01 23:18:00,
2013-06-01 19:23:00,81.6,69.6,29.88,West,267,3.0,9.0,67,0.00,,,0.00,WeatherCatV1.02B3,2013-06-01 23:23:00,
2013-06-01 19:28:00,81.4,69.4,29.88,SW,215,0.0,8.0,67,0.00,,,0.00,WeatherCatV1.02B3,2013-06-01 23:28:00,
2013-06-01 19:33:00,81.1,69.5,29.88,West,275,1.0,8.0,68,0.00,,,0.00,WeatherCatV1.02B3,2013-06-01 23:33:00,
2013-06-01 19:38:00,80.9,69.8,29.88,SSW,193,0.0,5.0,69,0.00,,,0.00,WeatherCatV1.02B3,2013-06-01 23:38:00,
2013-06-01 19:43:00,80.7,69.6,29.88,SW,223,0.0,1.0,69,0.00,,,0.00,WeatherCatV1.02B3,2013-06-01 23:43:00,
2013-06-01 19:48:00,80.3,69.2,29.88,SSW,213,2.0,6.0,69,0.00,,,0.00,WeatherCatV1.02B3,2013-06-01 23:48:00,
2013-06-01 19:53:00,80.1,69.4,29.88,SE,140,7.0,7.0,70,0.00,,,0.00,WeatherCatV1.02B3,2013-06-01 23:53:00,
2013-06-01 19:58:00,79.8,69.1,29.88,SE,138,1.0,6.0,70,0.00,,,0.00,WeatherCatV1.02B3,2013-06-01 23:58:00,
2013-06-01 20:03:00,79.6,68.9,29.88,SW,232,5.0,6.0,70,0.00,,,0.00,WeatherCatV1.02B3,2013-06-02 00:03:00,
2013-06-01 20:08:00,79.4,68.7,29.88,South,188,2.0,4.0,70,0.00,,,0.00,WeatherCatV1.02B3,2013-06-02 00:08:00,
2013-06-01 20:13:00,79.2,69.0,29.87,SW,223,6.0,6.0,71,0.00,,,0.00,WeatherCatV1.02B3,2013-06-02 00:13:00,
2013-06-01 20:18:00,79.0,68.8,29.88,SW,236,0.0,8.0,71,0.00,,,0.00,WeatherCatV1.02B3,2013-06-02 00:18:00,
2013-06-01 20:23:00,78.7,68.9,29.88,SW,227,3.0,4.0,72,0.00,,,0.00,WeatherCatV1.02B3,2013-06-02 00:23:00,
2013-06-01 20:28:00,78.4,68.6,29.88,SW,219,0.0,6.0,72,0.00,,,0.00,WeatherCatV1.02B3,2013-06-02 00:28:00,
2013-06-01 20:33:00,78.3,68.9,29.88,South,175,2.0,6.0,73,0.00,,,0.00,WeatherCatV1.02B3,2013-06-02 00:33:00,
2013-06-01 20:38:00,78.1,68.7,29.88,SSE,167,2.0,5.0,73,0.00,,,0.00,WeatherCatV1.02B3,2013-06-02 00:38:00,
2013-06-01 20:43:00,77.9,68.1,29.88,SE,143,7.0,7.0,72,0.00,,,0.00,WeatherCatV1.02B3,2013-06-02 00:43:00,
2013-06-01 20:48:00,77.9,68.1,29.88,SW,226,1.0,2.0,72,0.00,,,0.00,WeatherCatV1.02B3,2013-06-02 00:48:00,
2013-06-01 20:53:00,77.7,68.3,29.88,SSE,161,1.0,6.0,73,0.00,,,0.00,WeatherCatV1.02B3,2013-06-02 00:53:00,
2013-06-01 20:58:00,77.5,68.1,29.89,SSE,166,4.0,5.0,73,0.00,,,0.00,WeatherCatV1.02B3,2013-06-02 00:58:00,
2013-06-01 21:03:00,77.4,68.0,29.89,SW,215,7.0,7.0,73,0.00,,,0.00,WeatherCatV1.02B3,2013-06-02 01:03:00,
2013-06-01 21:08:00,77.2,67.9,29.89,SSW,213,7.0,8.0,73,0.00,,,0.00,WeatherCatV1.02B3,2013-06-02 01:08:00,
2013-06-01 21:13:00,77.1,67.8,29.89,ESE,105,0.0,6.0,73,0.00,,,0.00,WeatherCatV1.02B3,2013-06-02 01:13:00,
2013-06-01 21:18:00,77.0,67.7,29.89,WSW,238,1.0,4.0,73,0.00,,,0.00,WeatherCatV1.02B3,2013-06-02 01:18:00,
2013-06-01 21:23:00,76.8,67.9,29.89,SSW,210,2.0,6.0,74,0.00,,,0.00,WeatherCatV1.02B3,2013-06-02 01:23:00,
2013-06-01 21:29:00,76.6,67.7,29.89,SW,216,2.0,7.0,74,0.00,,,0.00,WeatherCatV1.02B3,2013-06-02 01:29:00,
2013-06-01 21:34:00,76.4,67.5,29.89,SSW,203,2.0,9.0,74,0.00,,,0.00,WeatherCatV1.02B3,2013-06-02 01:34:00,
2013-06-01 21:39:00,76.3,67.8,29.89,South,176,1.0,10.0,75,0.00,,,0.00,WeatherCatV1.02B3,2013-06-02 01:39:00,
2013-06-01 21:44:00,76.1,67.6,29.89,SSW,210,0.0,8.0,75,0.00,,,0.00,WeatherCatV1.02B3,2013-06-02 01:44:00,
2013-06-01 21:49:00,76.0,67.5,29.89,SSW,208,3.0,6.0,75,0.00,,,0.00,WeatherCatV1.02B3,2013-06-02 01:49:00,
2013-06-01 21:54:00,75.8,67.3,29.89,SW,217,0.0,7.0,75,0.00,,,0.00,WeatherCatV1.02B3,2013-06-02 01:54:00,
2013-06-01 21:59:00,75.7,67.6,29.89,SE,139,4.0,6.0,76,0.00,,,0.00,WeatherCatV1.02B3,2013-06-02 01:59:00,
2013-06-01 22:04:00,75.5,67.4,29.89,SSE,166,6.0,9.0,76,0.00,,,0.00,WeatherCatV1.02B3,2013-06-02 02:04:00,
2013-06-01 22:09:00,75.3,67.2,29.89,SW,232,8.0,8.0,76,0.00,,,0.00,WeatherCatV1.02B3,2013-06-02 02:09:00,
2013-06-01 22:14:00,75.2,67.5,29.89,SW,223,4.0,6.0,77,0.00,,,0.00,WeatherCatV1.02B3,2013-06-02 02:14:00,
2013-06-01 22:19:00,75.0,67.3,29.89,SSW,205,6.0,6.0,77,0.00,,,0.00,WeatherCatV1.02B3,2013-06-02 02:19:00,
2013-06-01 22:24:00,74.9,67.2,29.89,SSW,212,6.0,8.0,77,0.00,,,0.00,WeatherCatV1.02B3,2013-06-02 02:24:00,
2013-06-01 22:29:00,74.7,67.4,29.89,SW,217,2.0,7.0,78,0.00,,,0.00,WeatherCatV1.02B3,2013-06-02 02:29:00,
2013-06-01 22:34:00,74.6,67.3,29.89,WSW,248,2.0,6.0,78,0.00,,,0.00,WeatherCatV1.02B3,2013-06-02 02:34:00,
2013-06-01 22:39:00,74.5,67.2,29.89,SSW,194,8.0,8.0,78,0.00,,,0.00,WeatherCatV1.02B3,2013-06-02 02:39:00,
2013-06-01 22:44:00,74.4,67.1,29.89,SW,227,8.0,8.0,78,0.00,,,0.00,WeatherCatV1.02B3,2013-06-02 02:44:00,
2013-06-01 22:49:00,74.3,67.0,29.89,SW,216,4.0,11.0,78,0.00,,,0.00,WeatherCatV1.02B3,2013-06-02 02:49:00,
2013-06-01 22:54:00,74.2,66.9,29.89,SSW,196,2.0,5.0,78,0.00,,,0.00,WeatherCatV1.02B3,2013-06-02 02:54:00,
2013-06-01 22:59:00,74.2,66.9,29.89,West,270,3.0,8.0,78,0.00,,,0.00,WeatherCatV1.02B3,2013-06-02 02:59:00,
2013-06-01 23:04:00,74.0,66.7,29.89,SE,126,0.0,6.0,78,0.00,,,0.00,WeatherCatV1.02B3,2013-06-02 03:04:00,
2013-06-01 23:09:00,74.0,67.1,29.89,SW,225,8.0,10.0,79,0.00,,,0.00,WeatherCatV1.02B3,2013-06-02 03:09:00,
2013-06-01 23:14:00,73.9,67.0,29.89,SSW,204,5.0,8.0,79,0.00,,,0.00,WeatherCatV1.02B3,2013-06-02 03:14:00,
2013-06-01 23:19:00,73.7,66.8,29.89,South,182,3.0,7.0,79,0.00,,,0.00,WeatherCatV1.02B3,2013-06-02 03:19:00,
2013-06-01 23:24:00,73.6,66.7,29.89,NW,312,7.0,10.0,79,0.00,,,0.00,WeatherCatV1.02B3,2013-06-02 03:24:00,
2013-06-01 23:29:00,73.4,66.5,29.89,SSW,211,4.0,11.0,79,0.00,,,0.00,WeatherCatV1.02B3,2013-06-02 03:29:00,
2013-06-01 23:34:00,73.2,66.6,29.89,SW,220,4.0,7.0,80,0.00,,,0.00,WeatherCatV1.02B3,2013-06-02 03:34:00,
2013-06-01 23:39:00,73.1,66.6,29.89,WSW,257,0.0,11.0,80,0.00,,,0.00,WeatherCatV1.02B3,2013-06-02 03:39:00,
2013-06-01 23:44:00,73.0,66.5,29.89,SSE,149,4.0,9.0,80,0.00,,,0.00,WeatherCatV1.02B3,2013-06-02 03:44:00,
2013-06-01 23:49:00,72.8,66.3,29.89,SW,223,0.0,7.0,80,0.00,,,0.00,WeatherCatV1.02B3,2013-06-02 03:49:00,
2013-06-01 23:54:00,72.7,66.5,29.89,SSW,208,5.0,5.0,81,0.00,,,0.00,WeatherCatV1.02B3,2013-06-02 03:54:00,
2013-06-01 23:59:00,72.6,66.4,29.88,South,175,4.0,6.0,81,0.00,,,0.00,WeatherCatV1.02B3,2013-06-02 03:59:00,